[[{"header":{"parameterUnit":"m.s-1","parameterCategory":1,"la1":30.2992,"la2":30.254,"lo1":-89.0895,"lo2":-89.0443,"dy":0.0025,"dx":0.0025,"nx":19,"ny":19,"refTime":"2026-04-04T09:00:00:Z","depth":0,"parameterNumber":2,"parameterNumberName":"U-component_of_WINDS"},"data":[0,0,0,-4.6107,-4.6111,-4.6287,-4.6287,-4.6517,-4.6519,0,0,0,0,0,0,0,0,0,0,0,-4.6058,-4.6059,-4.6107,-4.6111,-4.6286,-4.6287,-4.6516,-4.6519,0,0,0,0,0,0,0,0,0,0,0,-4.6057,-4.6059,-4.6061,-4.6112,-4.6286,-4.6287,-4.6516,-4.6382,0,0,0,0,0,0,0,0,0,0,-4.6211,-4.6167,-4.6058,-4.6061,-4.6113,-4.6286,-4.6287,-4.6375,-4.639,-4.6439,0,-4.6482,0,-4.6504,-4.6534,-4.6535,0,0,0,-4.611,-4.6154,-4.62,-4.6061,-4.6115,-4.6286,-4.6207,-4.6384,-4.64,-4.6459,-4.6486,-4.6494,-4.6508,-4.6536,-4.6537,-4.6822,-4.6824,0,0,-4.61,-4.609,-4.6188,-4.6211,-4.6183,-4.6201,-4.6213,-4.6394,-4.6422,-4.6486,-4.6499,-4.6512,-4.6537,-4.6539,-4.6821,-4.6823,0,0,0,-4.6073,-4.6084,-4.6124,-4.6201,-4.6232,-4.6207,-4.6219,-4.6414,-4.6428,-4.6502,-4.6515,-4.6539,-4.6542,-4.682,-4.6822,-4.688,0,0,0,-4.6068,-4.6068,-4.612,-4.6116,-4.6229,-4.6325,-4.6236,-4.6416,-4.6437,-4.6513,-4.6539,-4.6544,-4.6818,-4.6821,-4.6875,-4.6908,0,0,0,-4.6045,-4.6065,-4.6091,-4.6115,-4.619,-4.6323,-4.6347,-4.6421,-4.6445,-4.6535,-4.6544,-4.6817,-4.682,-4.687,-4.6901,-4.6979,0,0,0,-4.6019,-4.6141,-4.6092,-4.6234,-4.6188,-4.6358,-4.6346,-4.6473,-4.6558,-4.654,-4.6818,-4.6821,-4.6869,-4.6897,-4.6974,-4.7042,-4.7069,0,0,-4.6167,-4.6158,-4.6243,-4.6204,-4.6379,-4.6332,-4.6516,-4.6604,-4.6622,-4.6755,-4.6762,-4.6876,-4.69,-4.6978,-4.7231,-4.7253,0,0,0,-4.6286,-4.6346,-4.6395,-4.6475,-4.6545,-4.6608,-4.6668,-4.6701,-4.6814,-4.6688,-4.6927,-4.6942,-4.6988,-4.702,-4.7039,-4.7079,-4.6837,-4.6836,-4.6836,-4.648,-4.6497,-4.6638,-4.6676,-4.6755,-4.6817,-4.6882,-4.6937,-4.6931,-4.6988,-4.7026,-4.7177,-4.7215,-4.7229,-4.727,-4.7065,-4.7065,-4.7066,-4.7066,-4.6698,-4.6785,-4.6776,-4.6909,-4.6927,-4.7039,-4.7105,-4.7097,-4.7205,-4.7149,-4.7191,-4.7127,-4.7252,-4.7289,-4.707,-4.707,-4.7069,-4.7069,-4.7068,-4.6825,-4.6869,-4.6908,-4.7026,-4.7115,-4.7152,-4.7255,-4.7269,-4.7282,-4.7323,-4.7365,-4.7364,-4.7363,-4.7343,-4.7343,-4.7344,-4.7344,-4.7345,-4.7345,-4.694,-4.6981,-4.7066,-4.7152,-4.7206,-4.7278,-4.7344,-4.7397,-4.746,-4.7462,-4.7462,-4.7451,-4.7262,-4.7213,-4.7353,-4.7352,-4.7351,-4.735,-4.7349,-4.715,-4.7105,-4.7236,-4.729,-4.7392,-4.748,-4.7497,-4.7606,-4.7652,-4.7703,-4.7685,-4.7544,-4.7535,-4.7521,-4.748,-4.7681,-4.7681,-4.7681,-4.7681,-4.7255,-4.7253,-4.739,-4.7475,-4.7561,-4.759,-4.7739,-4.7792,-4.784,-4.787,-4.7844,-4.7792,-4.7777,-4.7778,-4.7758,-4.772,-4.7977,-4.7977,-4.7978,-4.7384,-4.7392,-4.7514,-4.756,-4.7642,-4.7712,-4.7852,-4.7951,-4.7997,-4.799,-4.7894,-4.7881,-4.7798,-4.7771,-4.7758,-4.7726,-4.7657,0,0]},{"header":{"parameterUnit":"m.s-1","parameterCategory":1,"la1":30.2992,"la2":30.254,"lo1":-89.0895,"lo2":-89.0443,"dy":0.0025,"dx":0.0025,"nx":19,"ny":19,"refTime":"2026-04-04T09:00:00:Z","depth":0,"parameterNumber":3,"parameterNumberName":"V-component_of_WINDS"},"data":[0,0,0,2.7684,2.7685,2.7721,2.7721,2.777,2.777,0,0,0,0,0,0,0,0,0,0,0,2.7675,2.7676,2.7684,2.7685,2.7721,2.7721,2.777,2.777,0,0,0,0,0,0,0,0,0,0,0,2.7675,2.7675,2.7676,2.7685,2.7721,2.7721,2.777,2.7741,0,0,0,0,0,0,0,0,0,0,2.7706,2.7699,2.7675,2.7676,2.7686,2.7721,2.7721,2.774,2.7743,2.7754,0,2.7765,0,2.7769,2.7774,2.7774,0,0,0,2.7684,2.7696,2.7705,2.7676,2.7686,2.7721,2.7705,2.7742,2.7745,2.7759,2.7766,2.7768,2.7769,2.7774,2.7774,2.7847,2.7848,0,0,2.7682,2.7682,2.7702,2.7707,2.7702,2.7703,2.7706,2.7744,2.7751,2.7766,2.7769,2.777,2.7774,2.7775,2.7847,2.7847,0,0,0,2.7677,2.7681,2.7688,2.7705,2.7712,2.7705,2.7707,2.775,2.7752,2.7769,2.7771,2.7775,2.7775,2.7846,2.7847,2.7869,0,0,0,2.7676,2.7678,2.7688,2.7688,2.7711,2.7731,2.7712,2.775,2.7754,2.7771,2.7775,2.7776,2.7846,2.7847,2.7867,2.7879,0,0,0,2.7672,2.7677,2.7683,2.7688,2.7704,2.7731,2.7735,2.7751,2.7755,2.7774,2.7776,2.7846,2.7847,2.7866,2.7877,2.79,0,0,0,2.7668,2.77,2.7684,2.7721,2.7703,2.7744,2.7735,2.7765,2.7784,2.7775,2.7846,2.7847,2.7866,2.7875,2.7898,2.792,2.7929,0,0,2.7709,2.7705,2.7727,2.7713,2.7757,2.7739,2.7786,2.7801,2.7802,2.7832,2.7834,2.7868,2.7876,2.7899,2.7977,2.7984,0,0,0,2.774,2.7756,2.7767,2.7786,2.7801,2.7815,2.7824,2.783,2.7856,2.7818,2.7882,2.7887,2.7901,2.7911,2.7917,2.7929,2.7852,2.7851,2.7851,2.7797,2.7799,2.7836,2.7842,2.7861,2.7872,2.7887,2.7897,2.7891,2.7907,2.7915,2.7962,2.7974,2.7979,2.7992,2.7926,2.7926,2.7926,2.7927,2.7858,2.7881,2.7876,2.791,2.7911,2.7939,2.7952,2.7947,2.7974,2.7955,2.7967,2.7947,2.7987,2.7998,2.7928,2.7928,2.7928,2.7928,2.7927,2.7895,2.7907,2.7916,2.7946,2.7969,2.7974,2.8002,2.8001,2.8001,2.8013,2.8023,2.8023,2.8023,2.8018,2.8018,2.8018,2.8018,2.8018,2.8019,2.7931,2.7941,2.7964,2.7985,2.7999,2.8017,2.8031,2.8044,2.8059,2.8056,2.8057,2.805,2.799,2.7976,2.8021,2.8021,2.802,2.802,2.802,2.7993,2.798,2.8016,2.8031,2.8057,2.8081,2.8081,2.8109,2.812,2.8134,2.8126,2.8081,2.8077,2.8072,2.806,2.8124,2.8124,2.8124,2.8124,2.8025,2.8024,2.8063,2.8087,2.8109,2.8115,2.8157,2.8168,2.8178,2.8185,2.8176,2.816,2.8155,2.8153,2.8147,2.8136,2.8218,2.8218,2.8218,2.8064,2.8066,2.8102,2.8113,2.8134,2.8152,2.8193,2.822,2.8227,2.8222,2.8191,2.8187,2.8161,2.8153,2.8146,2.8135,2.8115,0,0]}]]